Location: Barrialito
(10.3588°N, 66.9747°W)
Time: 10:21:15
(UTC+00:00)

Cosmos 1862 Rocket - Pass Details

Date: 07 July 2022
Orbit: 603 x 633 km, 82.5° (Epoch: 13 August)

Event Time Altitude Azimuth Distance (km) Brightness Sun altitude
Rises 09:42:42 0° 320° (NW) 2,847 6.8 -7.4°
Reaches altitude 10° 09:46:38 10° 284° (WNW) 1,950 5.7 -6.5°
Maximum altitude 09:47:44 11° 269° (W) 1,894 5.5 -6.2°
Drops below altitude 10° 09:48:51 10° 254° (WSW) 1,953 5.5 -6.0°
Enters shadow 09:50:54 - 231° (SW) 2,322 5.9 -5.5°
